Time,TemperatureF,DewpointF,PressureIn,WindDirection,WindDirectionDegrees,WindSpeedMPH,WindSpeedGustMPH,Humidity,HourlyPrecipIn,Conditions,Clouds,dailyrainin,SoftwareType,DateUTC
2013-05-27 00:01:00,73.4,68.3,30.04,SE,142,4.0,11.0,84,0.00,,SKC,0.27,VWS V14.01,2013-05-27 05:01:00,
2013-05-27 00:06:00,73.3,68.2,30.04,SE,142,3.0,6.0,84,0.00,,SKC,0.00,VWS V14.01,2013-05-27 05:06:00,
2013-05-27 00:11:00,73.2,68.1,30.04,SE,143,2.0,7.0,84,0.00,,SKC,0.00,VWS V14.01,2013-05-27 05:11:00,
2013-05-27 00:16:00,73.1,68.3,30.04,SE,142,0.0,7.0,85,0.00,,SKC,0.00,VWS V14.01,2013-05-27 05:16:00,
2013-05-27 00:21:00,73.0,68.2,30.04,SE,143,2.0,7.0,85,0.00,,SKC,0.00,VWS V14.01,2013-05-27 05:21:00,
2013-05-27 00:26:00,72.9,68.1,30.04,SE,142,2.0,7.0,85,0.00,,SKC,0.00,VWS V14.01,2013-05-27 05:26:00,
2013-05-27 00:30:00,72.8,68.0,30.04,SE,142,0.0,7.0,85,0.00,,SKC,0.00,VWS V14.01,2013-05-27 05:30:00,
2013-05-27 00:31:00,72.8,68.0,30.04,SE,142,0.0,7.0,85,0.00,,SKC,0.00,VWS V14.01,2013-05-27 05:31:00,
2013-05-27 00:36:00,72.8,68.4,30.03,SE,143,0.0,5.0,86,0.00,,SKC,0.00,VWS V14.01,2013-05-27 05:36:00,
2013-05-27 00:41:00,72.7,68.3,30.04,SE,143,0.0,5.0,86,0.00,,SKC,0.00,VWS V14.01,2013-05-27 05:41:00,
2013-05-27 00:46:00,72.7,68.3,30.03,SE,143,0.0,7.0,86,0.00,,SKC,0.00,VWS V14.01,2013-05-27 05:46:00,
2013-05-27 00:51:00,72.6,68.5,30.03,SE,143,0.0,7.0,87,0.00,,SKC,0.00,VWS V14.01,2013-05-27 05:51:00,
2013-05-27 00:56:00,72.6,68.5,30.03,SE,142,2.0,7.0,87,0.00,,SKC,0.00,VWS V14.01,2013-05-27 05:56:00,
2013-05-27 01:00:00,72.6,68.5,30.03,SE,142,4.0,7.0,87,0.00,,SKC,0.00,VWS V14.01,2013-05-27 06:00:00,
2013-05-27 01:01:00,72.6,68.5,30.03,SE,142,4.0,7.0,87,0.00,,SKC,0.00,VWS V14.01,2013-05-27 06:01:00,
2013-05-27 01:06:00,72.5,68.4,30.02,SE,142,0.0,3.0,87,0.00,,SKC,0.00,VWS V14.01,2013-05-27 06:06:00,
2013-05-27 01:11:00,72.5,68.4,30.02,SE,142,2.0,6.0,87,0.00,,SKC,0.00,VWS V14.01,2013-05-27 06:11:00,
2013-05-27 01:16:00,72.5,68.8,30.02,SE,142,2.0,6.0,88,0.00,,SKC,0.00,VWS V14.01,2013-05-27 06:16:00,
2013-05-27 01:21:00,72.4,68.7,30.02,SE,143,2.0,7.0,88,0.00,,SKC,0.00,VWS V14.01,2013-05-27 06:21:00,
2013-05-27 01:26:00,72.4,68.7,30.01,SE,144,2.0,7.0,88,0.00,,SKC,0.00,VWS V14.01,2013-05-27 06:26:00,
2013-05-27 01:31:00,72.4,68.7,30.01,SE,144,5.0,7.0,88,0.00,,SKC,0.00,VWS V14.01,2013-05-27 06:31:00,
2013-05-27 01:36:00,72.4,68.7,30.01,SE,140,5.0,10.0,88,0.00,,SKC,0.00,VWS V14.01,2013-05-27 06:36:00,
2013-05-27 01:41:00,72.4,68.7,30.01,SSE,148,3.0,11.0,88,0.00,,SKC,0.00,VWS V14.01,2013-05-27 06:41:00,
2013-05-27 01:46:00,72.4,68.7,30.01,SE,146,2.0,13.0,88,0.00,,SKC,0.00,VWS V14.01,2013-05-27 06:46:00,
2013-05-27 01:51:00,72.3,68.9,30.00,SSE,151,5.0,13.0,89,0.00,,SKC,0.00,VWS V14.01,2013-05-27 06:51:00,
2013-05-27 01:56:00,72.2,68.8,30.00,SSE,150,4.0,13.0,89,0.00,,SKC,0.00,VWS V14.01,2013-05-27 06:56:00,
2013-05-27 02:01:00,72.2,68.8,30.00,SSE,168,4.0,13.0,89,0.00,,SKC,0.00,VWS V14.01,2013-05-27 07:01:00,
2013-05-27 02:06:00,72.1,68.7,30.00,SSE,166,4.0,5.0,89,0.00,,SKC,0.00,VWS V14.01,2013-05-27 07:06:00,
2013-05-27 02:11:00,72.0,68.6,30.00,SSE,165,2.0,7.0,89,0.00,,SKC,0.00,VWS V14.01,2013-05-27 07:11:00,
2013-05-27 02:16:00,71.9,68.8,29.99,SSE,165,3.0,7.0,90,0.00,,SKC,0.00,VWS V14.01,2013-05-27 07:16:00,
2013-05-27 02:21:00,71.9,68.8,29.99,SSE,159,5.0,9.0,90,0.00,,SKC,0.00,VWS V14.01,2013-05-27 07:21:00,
2013-05-27 02:26:00,71.8,68.7,29.99,SSE,159,3.0,9.0,90,0.00,,SKC,0.00,VWS V14.01,2013-05-27 07:26:00,
2013-05-27 02:31:00,71.7,68.6,29.99,SSE,159,2.0,9.0,90,0.00,,SKC,0.00,VWS V14.01,2013-05-27 07:31:00,
2013-05-27 02:36:00,71.7,68.6,29.99,SSE,158,5.0,5.0,90,0.00,,SKC,0.00,VWS V14.01,2013-05-27 07:36:00,
2013-05-27 02:41:00,71.6,68.5,29.99,SSE,163,4.0,5.0,90,0.00,,SKC,0.00,VWS V14.01,2013-05-27 07:41:00,
2013-05-27 02:46:00,71.5,68.4,29.99,SSE,163,3.0,6.0,90,0.00,,SKC,0.00,VWS V14.01,2013-05-27 07:46:00,
2013-05-27 02:51:00,71.5,68.7,29.99,SSE,163,1.0,6.0,91,0.00,,SKC,0.00,VWS V14.01,2013-05-27 07:51:00,
2013-05-27 02:56:00,71.4,68.6,29.99,SSE,163,4.0,6.0,91,0.00,,SKC,0.00,VWS V14.01,2013-05-27 07:56:00,
2013-05-27 03:01:00,71.5,68.7,29.98,SSE,163,4.0,7.0,91,0.00,,SKC,0.00,VWS V14.01,2013-05-27 08:01:00,
2013-05-27 03:06:00,71.5,68.7,29.98,SSE,162,0.0,5.0,91,0.00,,SKC,0.00,VWS V14.01,2013-05-27 08:06:00,
2013-05-27 03:11:00,71.5,68.7,29.98,SSE,161,2.0,7.0,91,0.00,,SKC,0.00,VWS V14.01,2013-05-27 08:11:00,
2013-05-27 03:16:00,71.5,69.1,29.98,South,182,3.0,11.0,92,0.00,,SKC,0.00,VWS V14.01,2013-05-27 08:16:00,
2013-05-27 03:21:00,71.6,69.2,29.98,SE,146,0.0,11.0,92,0.00,,SKC,0.00,VWS V14.01,2013-05-27 08:21:00,
2013-05-27 03:26:00,71.6,69.2,29.97,SE,146,0.0,11.0,92,0.00,,SKC,0.00,VWS V14.01,2013-05-27 08:26:00,
2013-05-27 03:31:00,71.6,69.2,29.97,SSE,150,2.0,11.0,92,0.00,,SKC,0.00,VWS V14.01,2013-05-27 08:31:00,
2013-05-27 03:36:00,71.7,69.3,29.97,SSE,152,6.0,6.0,92,0.00,,SKC,0.00,VWS V14.01,2013-05-27 08:36:00,
2013-05-27 03:41:00,71.7,69.3,29.97,SSE,155,3.0,7.0,92,0.00,,SKC,0.00,VWS V14.01,2013-05-27 08:41:00,
2013-05-27 03:46:00,71.7,69.3,29.97,SSE,149,4.0,10.0,92,0.00,,SKC,0.00,VWS V14.01,2013-05-27 08:46:00,
2013-05-27 03:51:00,71.7,69.3,29.97,SSE,151,2.0,10.0,92,0.00,,SKC,0.00,VWS V14.01,2013-05-27 08:51:00,
2013-05-27 03:56:00,71.7,69.3,29.97,South,188,1.0,10.0,92,0.00,,SKC,0.00,VWS V14.01,2013-05-27 08:56:00,
2013-05-27 04:01:00,71.7,69.3,29.97,South,186,5.0,10.0,92,0.00,,SKC,0.00,VWS V14.01,2013-05-27 09:01:00,
2013-05-27 04:06:00,71.7,69.3,29.97,South,177,1.0,6.0,92,0.00,,SKC,0.00,VWS V14.01,2013-05-27 09:06:00,
2013-05-27 04:11:00,71.7,69.3,29.97,South,171,5.0,6.0,92,0.00,,SKC,0.00,VWS V14.01,2013-05-27 09:11:00,
2013-05-27 04:16:00,71.7,69.3,29.97,SSW,196,3.0,11.0,92,0.00,,SKC,0.00,VWS V14.01,2013-05-27 09:16:00,
2013-05-27 04:21:00,71.7,69.3,29.97,South,190,3.0,11.0,92,0.00,,SKC,0.00,VWS V14.01,2013-05-27 09:21:00,
2013-05-27 04:26:00,71.8,69.3,29.97,South,188,6.0,11.0,92,0.00,,SKC,0.00,VWS V14.01,2013-05-27 09:26:00,
2013-05-27 04:31:00,71.7,69.3,29.97,South,173,3.0,11.0,92,0.00,,SKC,0.00,VWS V14.01,2013-05-27 09:31:00,
2013-05-27 04:36:00,71.7,69.3,29.97,South,173,1.0,4.0,92,0.00,,SKC,0.00,VWS V14.01,2013-05-27 09:36:00,
2013-05-27 04:41:00,71.7,69.3,29.97,South,178,5.0,6.0,92,0.00,,SKC,0.00,VWS V14.01,2013-05-27 09:41:00,
2013-05-27 04:46:00,71.7,69.3,29.97,South,173,4.0,6.0,92,0.00,,SKC,0.00,VWS V14.01,2013-05-27 09:46:00,
2013-05-27 04:51:00,71.7,69.3,29.97,South,184,3.0,9.0,92,0.00,,SKC,0.00,VWS V14.01,2013-05-27 09:51:00,
2013-05-27 04:56:00,71.7,69.3,29.97,South,181,3.0,9.0,92,0.00,,SKC,0.00,VWS V14.01,2013-05-27 09:56:00,
2013-05-27 05:01:00,71.7,69.3,29.97,South,178,3.0,9.0,92,0.00,,SKC,0.00,VWS V14.01,2013-05-27 10:01:00,
2013-05-27 05:06:00,71.8,69.3,29.97,South,172,7.0,7.0,92,0.00,,SKC,0.00,VWS V14.01,2013-05-27 10:06:00,
2013-05-27 05:11:00,71.8,69.3,29.97,South,171,2.0,7.0,92,0.00,,SKC,0.00,VWS V14.01,2013-05-27 10:11:00,
2013-05-27 05:16:00,71.8,69.3,29.97,SSE,165,7.0,7.0,92,0.00,,SKC,0.00,VWS V14.01,2013-05-27 10:16:00,
2013-05-27 05:21:00,71.8,69.3,29.97,South,169,2.0,9.0,92,0.00,,SKC,0.00,VWS V14.01,2013-05-27 10:21:00,
2013-05-27 05:26:00,71.8,69.3,29.97,SSE,167,3.0,9.0,92,0.00,,SKC,0.00,VWS V14.01,2013-05-27 10:26:00,
2013-05-27 05:31:00,71.8,69.3,29.97,SSE,164,2.0,9.0,92,0.00,,SKC,0.00,VWS V14.01,2013-05-27 10:31:00,
2013-05-27 05:36:00,71.8,69.3,29.97,SSW,209,4.0,10.0,92,0.00,,SKC,0.00,VWS V14.01,2013-05-27 10:36:00,
2013-05-27 05:41:00,71.8,69.3,29.97,SSE,157,6.0,16.0,92,0.00,,SKC,0.00,VWS V14.01,2013-05-27 10:41:00,
2013-05-27 05:46:00,71.8,69.0,29.97,South,169,6.0,16.0,91,0.00,,SKC,0.00,VWS V14.01,2013-05-27 10:46:00,
2013-05-27 05:51:00,71.9,69.1,29.97,SSE,149,5.0,16.0,91,0.00,,SKC,0.00,VWS V14.01,2013-05-27 10:51:00,
2013-05-27 05:56:00,71.9,69.1,29.97,SSE,148,5.0,16.0,91,0.00,,SKC,0.00,VWS V14.01,2013-05-27 10:56:00,
2013-05-27 06:01:00,71.9,69.1,29.97,SSE,167,3.0,16.0,91,0.00,,SKC,0.00,VWS V14.01,2013-05-27 11:01:00,
2013-05-27 06:06:00,72.0,69.2,29.97,SSE,158,8.0,13.0,91,0.00,,SKC,0.00,VWS V14.01,2013-05-27 11:06:00,
2013-05-27 06:11:00,72.0,69.2,29.97,South,176,5.0,14.0,91,0.00,,SKC,0.00,VWS V14.01,2013-05-27 11:11:00,
2013-05-27 06:16:00,71.9,69.1,29.97,South,172,5.0,14.0,91,0.00,,SKC,0.00,VWS V14.01,2013-05-27 11:16:00,
2013-05-27 06:21:00,72.0,69.2,29.97,SSE,165,4.0,14.0,91,0.00,,SKC,0.00,VWS V14.01,2013-05-27 11:21:00,
2013-05-27 06:26:00,72.0,69.2,29.97,SSE,152,8.0,14.0,91,0.00,,SKC,0.00,VWS V14.01,2013-05-27 11:26:00,
2013-05-27 06:31:00,72.0,69.2,29.97,SSE,155,5.0,14.0,91,0.00,,SKC,0.00,VWS V14.01,2013-05-27 11:31:00,
2013-05-27 06:36:00,72.0,69.2,29.98,SSE,154,4.0,9.0,91,0.00,,SKC,0.00,VWS V14.01,2013-05-27 11:36:00,
2013-05-27 06:41:00,72.0,69.2,29.98,SSE,149,3.0,10.0,91,0.00,,SKC,0.00,VWS V14.01,2013-05-27 11:41:00,
2013-05-27 06:46:00,72.0,69.2,29.97,SSE,148,9.0,10.0,91,0.00,,SKC,0.00,VWS V14.01,2013-05-27 11:46:00,
2013-05-27 06:51:00,72.0,69.2,29.98,SSE,148,5.0,10.0,91,0.00,,SKC,0.00,VWS V14.01,2013-05-27 11:51:00,
2013-05-27 06:56:00,72.0,69.2,29.98,SE,144,2.0,10.0,91,0.00,,SKC,0.00,VWS V14.01,2013-05-27 11:56:00,
2013-05-27 07:01:00,72.1,69.3,29.98,SE,144,2.0,10.0,91,0.00,,SKC,0.00,VWS V14.01,2013-05-27 12:01:00,
2013-05-27 07:06:00,72.1,69.3,29.98,SSE,150,6.0,8.0,91,0.00,,SKC,0.00,VWS V14.01,2013-05-27 12:06:00,
2013-05-27 07:11:00,72.1,69.3,29.99,SSE,155,3.0,12.0,91,0.00,,SKC,0.00,VWS V14.01,2013-05-27 12:11:00,
2013-05-27 07:16:00,72.1,69.3,29.99,SSE,151,0.0,12.0,91,0.00,,SKC,0.00,VWS V14.01,2013-05-27 12:16:00,
2013-05-27 07:21:00,72.1,69.3,29.99,South,169,3.0,13.0,91,0.00,,SKC,0.00,VWS V14.01,2013-05-27 12:21:00,
2013-05-27 07:26:00,72.1,69.3,29.99,SSE,155,4.0,13.0,91,0.00,,SKC,0.00,VWS V14.01,2013-05-27 12:26:00,
2013-05-27 07:31:00,72.1,69.3,29.99,SSE,163,2.0,13.0,91,0.00,,SKC,0.00,VWS V14.01,2013-05-27 12:31:00,
2013-05-27 07:36:00,72.2,69.4,29.98,SSE,152,2.0,10.0,91,0.00,,SKC,0.00,VWS V14.01,2013-05-27 12:36:00,
2013-05-27 07:41:00,72.2,69.4,29.98,South,174,3.0,10.0,91,0.00,,SKC,0.00,VWS V14.01,2013-05-27 12:41:00,
2013-05-27 07:46:00,72.3,69.2,29.98,South,169,5.0,10.0,90,0.00,,SKC,0.00,VWS V14.01,2013-05-27 12:46:00,
2013-05-27 07:51:00,72.4,69.3,29.98,SSW,194,5.0,10.0,90,0.00,,SKC,0.00,VWS V14.01,2013-05-27 12:51:00,
2013-05-27 07:56:00,72.5,69.4,29.98,SSE,155,3.0,12.0,90,0.00,,SKC,0.00,VWS V14.01,2013-05-27 12:56:00,
2013-05-27 08:01:00,72.5,69.4,29.99,SSE,154,4.0,12.0,90,0.00,,SKC,0.00,VWS V14.01,2013-05-27 13:01:00,
2013-05-27 08:06:00,72.6,69.5,29.98,SSE,164,4.0,9.0,90,0.00,,SKC,0.00,VWS V14.01,2013-05-27 13:06:00,
2013-05-27 08:11:00,72.6,69.5,29.98,SSE,154,5.0,10.0,90,0.00,,SKC,0.00,VWS V14.01,2013-05-27 13:11:00,
2013-05-27 08:16:00,72.7,69.6,29.98,SE,146,5.0,11.0,90,0.00,,SKC,0.00,VWS V14.01,2013-05-27 13:16:00,
2013-05-27 08:21:00,72.7,69.6,29.99,South,169,0.0,11.0,90,0.00,,SKC,0.00,VWS V14.01,2013-05-27 13:21:00,
2013-05-27 08:26:00,72.8,69.7,29.98,SSE,166,4.0,11.0,90,0.00,,SKC,0.00,VWS V14.01,2013-05-27 13:26:00,
2013-05-27 08:31:00,72.9,69.8,29.98,SSE,155,3.0,11.0,90,0.00,,SKC,0.00,VWS V14.01,2013-05-27 13:31:00,
2013-05-27 08:36:00,72.9,69.8,29.98,South,171,6.0,11.0,90,0.00,,SKC,0.00,VWS V14.01,2013-05-27 13:36:00,
2013-05-27 08:41:00,73.0,69.6,29.98,South,176,5.0,11.0,89,0.00,,SKC,0.00,VWS V14.01,2013-05-27 13:41:00,
2013-05-27 08:46:00,73.1,69.7,29.97,SE,142,4.0,12.0,89,0.00,,SKC,0.00,VWS V14.01,2013-05-27 13:46:00,
2013-05-27 08:51:00,73.2,69.8,29.98,SSE,164,6.0,12.0,89,0.00,,SKC,0.00,VWS V14.01,2013-05-27 13:51:00,
2013-05-27 08:56:00,73.3,69.9,29.98,SE,142,7.0,15.0,89,0.00,,SKC,0.00,VWS V14.01,2013-05-27 13:56:00,
2013-05-27 09:01:00,73.4,70.0,29.98,SE,144,6.0,15.0,89,0.00,,SKC,0.00,VWS V14.01,2013-05-27 14:01:00,
2013-05-27 09:06:00,73.5,70.1,29.98,SSE,150,9.0,10.0,89,0.00,,SKC,0.00,VWS V14.01,2013-05-27 14:06:00,
2013-05-27 09:11:00,73.5,70.1,29.98,SSE,155,4.0,11.0,89,0.00,,SKC,0.00,VWS V14.01,2013-05-27 14:11:00,
2013-05-27 09:16:00,73.6,69.8,29.98,SE,146,10.0,11.0,88,0.00,,SKC,0.00,VWS V14.01,2013-05-27 14:16:00,
2013-05-27 09:21:00,73.7,69.9,29.98,SSE,148,7.0,11.0,88,0.00,,SKC,0.00,VWS V14.01,2013-05-27 14:21:00,
2013-05-27 09:26:00,73.7,69.9,29.98,SSE,152,4.0,14.0,88,0.00,,SKC,0.00,VWS V14.01,2013-05-27 14:26:00,
2013-05-27 09:31:00,73.9,70.1,29.98,SSE,163,3.0,14.0,88,0.00,,SKC,0.00,VWS V14.01,2013-05-27 14:31:00,
2013-05-27 09:36:00,74.1,70.3,29.99,South,185,0.0,9.0,88,0.00,,SKC,0.00,VWS V14.01,2013-05-27 14:36:00,
2013-05-27 09:41:00,74.2,70.1,29.99,South,179,3.0,11.0,87,0.00,,SKC,0.00,VWS V14.01,2013-05-27 14:41:00,
2013-05-27 09:46:00,74.2,70.1,29.99,SSE,150,7.0,11.0,87,0.00,,SKC,0.00,VWS V14.01,2013-05-27 14:46:00,
2013-05-27 09:50:00,74.3,70.2,29.99,SE,142,7.0,11.0,87,0.00,,SKC,0.00,VWS V14.01,2013-05-27 14:50:00,
2013-05-27 09:55:00,74.4,70.3,29.99,SE,146,7.0,13.0,87,0.00,,SKC,0.00,VWS V14.01,2013-05-27 14:55:00,
2013-05-27 10:00:00,74.6,70.1,29.99,SSE,168,4.0,13.0,86,0.00,,SKC,0.00,VWS V14.01,2013-05-27 15:00:00,
2013-05-27 10:05:00,74.7,70.2,29.99,South,190,5.0,10.0,86,0.00,,SKC,0.00,VWS V14.01,2013-05-27 15:05:00,
2013-05-27 10:10:00,74.7,70.2,29.99,SSE,161,3.0,12.0,86,0.00,,SKC,0.00,VWS V14.01,2013-05-27 15:10:00,
2013-05-27 10:15:00,74.8,70.3,29.99,SSE,165,3.0,12.0,86,0.00,,SKC,0.00,VWS V14.01,2013-05-27 15:15:00,
2013-05-27 10:20:00,75.0,70.5,29.99,SE,145,2.0,12.0,86,0.00,,SKC,0.00,VWS V14.01,2013-05-27 15:20:00,
2013-05-27 10:25:00,75.2,70.4,29.99,SSE,163,2.0,12.0,85,0.00,,SKC,0.00,VWS V14.01,2013-05-27 15:25:00,
2013-05-27 10:30:00,75.3,70.5,29.99,South,174,4.0,13.0,85,0.00,,SKC,0.00,VWS V14.01,2013-05-27 15:30:00,
2013-05-27 10:35:00,75.5,70.3,29.99,South,184,9.0,14.0,84,0.00,,SKC,0.00,VWS V14.01,2013-05-27 15:35:00,
2013-05-27 10:40:00,75.6,70.4,29.99,SSE,153,7.0,14.0,84,0.00,,SKC,0.00,VWS V14.01,2013-05-27 15:40:00,
2013-05-27 10:45:00,75.9,70.7,29.99,South,174,4.0,14.0,84,0.00,,SKC,0.00,VWS V14.01,2013-05-27 15:45:00,
2013-05-27 10:50:00,76.3,71.1,29.99,SE,144,4.0,14.0,84,0.00,,SKC,0.00,VWS V14.01,2013-05-27 15:50:00,
2013-05-27 10:55:00,76.6,71.1,29.99,South,186,3.0,14.0,83,0.00,,SKC,0.00,VWS V14.01,2013-05-27 15:55:00,
2013-05-27 11:00:00,76.8,70.9,29.99,SSE,148,3.0,14.0,82,0.00,,SKC,0.00,VWS V14.01,2013-05-27 16:00:00,
2013-05-27 11:05:00,76.9,71.0,29.99,SSW,204,10.0,13.0,82,0.00,,SKC,0.00,VWS V14.01,2013-05-27 16:05:00,
2013-05-27 11:10:00,76.9,70.6,29.99,SE,146,3.0,13.0,81,0.00,,SKC,0.00,VWS V14.01,2013-05-27 16:10:00,
2013-05-27 11:15:00,76.8,70.9,29.99,SE,145,16.0,16.0,82,0.00,,SKC,0.00,VWS V14.01,2013-05-27 16:15:00,
2013-05-27 11:20:00,76.8,70.9,29.99,SSE,153,6.0,16.0,82,0.00,,SKC,0.00,VWS V14.01,2013-05-27 16:20:00,
2013-05-27 11:25:00,77.0,71.1,29.99,SSW,201,4.0,16.0,82,0.00,,SKC,0.00,VWS V14.01,2013-05-27 16:25:00,
2013-05-27 11:30:00,77.2,70.9,29.99,SSE,153,3.0,16.0,81,0.00,,SKC,0.00,VWS V14.01,2013-05-27 16:30:00,
2013-05-27 11:35:00,77.4,71.1,29.99,SSE,148,6.0,11.0,81,0.00,,SKC,0.00,VWS V14.01,2013-05-27 16:35:00,
2013-05-27 11:40:00,77.6,70.9,29.99,South,170,5.0,12.0,80,0.00,,SKC,0.00,VWS V14.01,2013-05-27 16:40:00,
2013-05-27 11:45:00,77.9,71.6,29.99,SSE,162,3.0,12.0,81,0.00,,SKC,0.00,VWS V14.01,2013-05-27 16:45:00,
2013-05-27 11:50:00,78.0,71.3,29.99,South,169,4.0,16.0,80,0.00,,SKC,0.00,VWS V14.01,2013-05-27 16:50:00,
2013-05-27 11:55:00,78.2,71.2,29.98,SSE,163,10.0,16.0,79,0.00,,SKC,0.00,VWS V14.01,2013-05-27 16:55:00,
2013-05-27 12:00:00,78.4,71.7,29.98,South,185,5.0,16.0,80,0.00,,SKC,0.00,VWS V14.01,2013-05-27 17:00:00,
2013-05-27 12:05:00,78.6,71.6,29.98,SSW,213,11.0,13.0,79,0.00,,SKC,0.00,VWS V14.01,2013-05-27 17:05:00,
2013-05-27 12:10:00,79.0,71.9,29.98,SSE,147,7.0,13.0,79,0.00,,SKC,0.00,VWS V14.01,2013-05-27 17:10:00,
2013-05-27 12:15:00,79.6,72.1,29.98,SE,138,15.0,15.0,78,0.00,,SKC,0.00,VWS V14.01,2013-05-27 17:15:00,
2013-05-27 12:20:00,80.1,72.2,29.98,SE,142,11.0,15.0,77,0.00,,SKC,0.00,VWS V14.01,2013-05-27 17:20:00,
2013-05-27 12:25:00,80.6,72.3,29.98,SSW,207,9.0,16.0,76,0.00,,SKC,0.00,VWS V14.01,2013-05-27 17:25:00,
2013-05-27 12:30:00,80.7,72.0,29.98,South,174,4.0,16.0,75,0.00,,SKC,0.00,VWS V14.01,2013-05-27 17:30:00,
2013-05-27 12:35:00,81.1,72.4,29.98,South,182,6.0,15.0,75,0.00,,SKC,0.00,VWS V14.01,2013-05-27 17:35:00,
2013-05-27 12:40:00,81.3,72.2,29.98,SSE,152,10.0,16.0,74,0.00,,SKC,0.00,VWS V14.01,2013-05-27 17:40:00,
2013-05-27 12:45:00,81.3,72.2,29.98,SSE,148,11.0,16.0,74,0.00,,SKC,0.00,VWS V14.01,2013-05-27 17:45:00,
2013-05-27 12:50:00,81.3,72.6,29.98,South,175,5.0,16.0,75,0.00,,SKC,0.00,VWS V14.01,2013-05-27 17:50:00,
2013-05-27 12:55:00,81.8,72.7,29.97,SSE,147,6.0,16.0,74,0.00,,SKC,0.00,VWS V14.01,2013-05-27 17:55:00,
2013-05-27 13:00:00,82.5,73.0,29.97,SSE,161,5.0,16.0,73,0.00,,SKC,0.00,VWS V14.01,2013-05-27 18:00:00,
2013-05-27 13:05:00,83.0,73.1,29.97,SE,144,11.0,13.0,72,0.00,,SKC,0.00,VWS V14.01,2013-05-27 18:05:00,
2013-05-27 13:10:00,83.4,73.0,29.97,SE,140,13.0,13.0,71,0.00,,SKC,0.00,VWS V14.01,2013-05-27 18:10:00,
2013-05-27 13:15:00,83.6,72.4,29.97,SSW,198,4.0,13.0,69,0.00,,SKC,0.00,VWS V14.01,2013-05-27 18:15:00,
2013-05-27 13:20:00,83.4,72.6,29.96,SE,137,9.0,13.0,70,0.00,,SKC,0.00,VWS V14.01,2013-05-27 18:20:00,
2013-05-27 13:25:00,83.2,72.4,29.96,South,185,6.0,13.0,70,0.00,,SKC,0.00,VWS V14.01,2013-05-27 18:25:00,
2013-05-27 13:30:00,83.3,72.5,29.95,South,175,9.0,16.0,70,0.00,,SKC,0.00,VWS V14.01,2013-05-27 18:30:00,
2013-05-27 13:35:00,83.7,72.9,29.95,South,190,11.0,15.0,70,0.00,,SKC,0.00,VWS V14.01,2013-05-27 18:35:00,
2013-05-27 13:40:00,84.2,72.9,29.95,SSW,192,5.0,15.0,69,0.00,,SKC,0.00,VWS V14.01,2013-05-27 18:40:00,
2013-05-27 13:45:00,84.5,72.8,29.94,SSE,168,7.0,16.0,68,0.00,,SKC,0.00,VWS V14.01,2013-05-27 18:45:00,
2013-05-27 13:50:00,84.8,73.1,29.94,SSW,206,4.0,16.0,68,0.00,,SKC,0.00,VWS V14.01,2013-05-27 18:50:00,
2013-05-27 13:55:00,85.1,72.5,29.94,SE,144,6.0,16.0,66,0.00,,SKC,0.00,VWS V14.01,2013-05-27 18:55:00,
2013-05-27 14:00:00,84.9,72.7,29.94,SSE,153,7.0,16.0,67,0.00,,SKC,0.00,VWS V14.01,2013-05-27 19:00:00,
2013-05-27 14:05:00,84.6,72.9,29.94,SSW,201,12.0,13.0,68,0.00,,SKC,0.00,VWS V14.01,2013-05-27 19:05:00,
2013-05-27 14:10:00,84.5,72.3,29.94,SE,136,5.0,13.0,67,0.00,,SKC,0.00,VWS V14.01,2013-05-27 19:10:00,
2013-05-27 14:15:00,84.7,73.0,29.94,SSE,150,7.0,13.0,68,0.00,,SKC,0.00,VWS V14.01,2013-05-27 19:15:00,
2013-05-27 14:20:00,84.8,73.1,29.94,SSE,159,2.0,16.0,68,0.00,,SKC,0.00,VWS V14.01,2013-05-27 19:20:00,
2013-05-27 14:25:00,84.7,73.0,29.93,South,171,4.0,16.0,68,0.00,,SKC,0.00,VWS V14.01,2013-05-27 19:25:00,
2013-05-27 14:30:00,84.8,73.1,29.93,SW,215,14.0,17.0,68,0.00,,SKC,0.00,VWS V14.01,2013-05-27 19:30:00,
2013-05-27 14:35:00,85.2,73.0,29.93,South,185,4.0,15.0,67,0.00,,SKC,0.00,VWS V14.01,2013-05-27 19:35:00,
2013-05-27 14:40:00,85.6,72.9,29.93,SSW,192,11.0,15.0,66,0.00,,SKC,0.00,VWS V14.01,2013-05-27 19:40:00,
2013-05-27 14:45:00,85.7,73.5,29.92,SSW,200,5.0,15.0,67,0.00,,SKC,0.00,VWS V14.01,2013-05-27 19:45:00,
2013-05-27 14:50:00,86.0,73.3,29.92,SE,142,7.0,15.0,66,0.00,,SKC,0.00,VWS V14.01,2013-05-27 19:50:00,
2013-05-27 14:55:00,86.4,73.2,29.92,SW,221,5.0,15.0,65,0.00,,SKC,0.00,VWS V14.01,2013-05-27 19:55:00,
2013-05-27 15:00:00,86.7,73.1,29.91,SSE,149,9.0,15.0,64,0.00,,SKC,0.00,VWS V14.01,2013-05-27 20:00:00,
2013-05-27 15:05:00,86.9,73.3,29.91,SSE,167,5.0,15.0,64,0.00,,SKC,0.00,VWS V14.01,2013-05-27 20:05:00,
2013-05-27 15:10:00,87.0,73.4,29.91,SW,219,12.0,18.0,64,0.00,,SKC,0.00,VWS V14.01,2013-05-27 20:10:00,
2013-05-27 15:15:00,87.2,73.6,29.91,SSE,148,12.0,18.0,64,0.00,,SKC,0.00,VWS V14.01,2013-05-27 20:15:00,
2013-05-27 15:20:00,87.5,73.8,29.90,SSW,196,8.0,19.0,64,0.00,,SKC,0.00,VWS V14.01,2013-05-27 20:20:00,
2013-05-27 15:25:00,87.6,73.0,29.91,SSE,148,4.0,19.0,62,0.00,,SKC,0.00,VWS V14.01,2013-05-27 20:25:00,
2013-05-27 15:30:00,87.2,72.6,29.90,SSE,155,5.0,19.0,62,0.00,,SKC,0.00,VWS V14.01,2013-05-27 20:30:00,
2013-05-27 15:35:00,87.1,72.5,29.90,SSE,166,8.0,15.0,62,0.00,,SKC,0.00,VWS V14.01,2013-05-27 20:35:00,
2013-05-27 15:40:00,87.3,73.6,29.90,SSE,162,8.0,15.0,64,0.00,,SKC,0.00,VWS V14.01,2013-05-27 20:40:00,
2013-05-27 15:45:00,87.7,74.0,29.90,South,188,5.0,15.0,64,0.00,,SKC,0.00,VWS V14.01,2013-05-27 20:45:00,
2013-05-27 15:50:00,87.8,73.6,29.90,SE,142,7.0,15.0,63,0.00,,SKC,0.00,VWS V14.01,2013-05-27 20:50:00,
2013-05-27 15:55:00,87.6,72.0,29.89,SSE,153,7.0,16.0,60,0.00,,SKC,0.00,VWS V14.01,2013-05-27 20:55:00,
2013-05-27 16:00:00,86.9,71.8,29.89,SSE,148,8.0,23.0,61,0.00,,SKC,0.00,VWS V14.01,2013-05-27 21:00:00,
2013-05-27 16:05:00,86.9,72.3,29.89,SSE,152,6.0,14.0,62,0.00,,SKC,0.00,VWS V14.01,2013-05-27 21:05:00,
2013-05-27 16:10:00,87.0,72.4,29.89,SSW,200,5.0,14.0,62,0.00,,SKC,0.00,VWS V14.01,2013-05-27 21:10:00,
2013-05-27 16:15:00,87.5,71.9,29.88,SSW,194,11.0,20.0,60,0.00,,SKC,0.00,VWS V14.01,2013-05-27 21:15:00,
2013-05-27 16:20:00,87.7,72.1,29.88,South,190,7.0,20.0,60,0.00,,SKC,0.00,VWS V14.01,2013-05-27 21:20:00,
2013-05-27 16:25:00,87.8,72.7,29.88,SSE,168,3.0,20.0,61,0.00,,SKC,0.00,VWS V14.01,2013-05-27 21:25:00,
2013-05-27 16:30:00,88.2,74.0,29.88,SSE,163,5.0,20.0,63,0.00,,SKC,0.00,VWS V14.01,2013-05-27 21:30:00,
2013-05-27 16:35:00,87.8,73.2,29.88,SE,141,12.0,16.0,62,0.00,,SKC,0.00,VWS V14.01,2013-05-27 21:35:00,
2013-05-27 16:40:00,86.9,72.8,29.88,SSE,151,3.0,16.0,63,0.00,,SKC,0.00,VWS V14.01,2013-05-27 21:40:00,
2013-05-27 16:45:00,86.5,73.3,29.88,SSW,193,5.0,16.0,65,0.00,,SKC,0.00,VWS V14.01,2013-05-27 21:45:00,
2013-05-27 16:50:00,86.6,72.5,29.87,South,172,6.0,17.0,63,0.00,,SKC,0.00,VWS V14.01,2013-05-27 21:50:00,
2013-05-27 16:55:00,86.8,73.2,29.87,SSE,156,5.0,17.0,64,0.00,,SKC,0.00,VWS V14.01,2013-05-27 21:55:00,
2013-05-27 17:00:00,87.0,73.8,29.87,SE,144,7.0,17.0,65,0.00,,SKC,0.00,VWS V14.01,2013-05-27 22:00:00,
2013-05-27 17:05:00,86.7,74.0,29.87,SE,146,4.0,18.0,66,0.00,,SKC,0.00,VWS V14.01,2013-05-27 22:05:00,
2013-05-27 17:10:00,86.3,74.1,29.87,SE,141,12.0,18.0,67,0.00,,SKC,0.00,VWS V14.01,2013-05-27 22:10:00,
2013-05-27 17:15:00,85.7,73.9,29.87,SSE,153,8.0,18.0,68,0.00,,SKC,0.00,VWS V14.01,2013-05-27 22:15:00,
2013-05-27 17:20:00,85.1,73.4,29.86,SSE,153,9.0,18.0,68,0.00,,SKC,0.00,VWS V14.01,2013-05-27 22:20:00,
2013-05-27 17:25:00,84.6,73.3,29.86,SSE,157,4.0,18.0,69,0.00,,SKC,0.00,VWS V14.01,2013-05-27 22:25:00,
2013-05-27 17:30:00,84.5,73.7,29.86,SE,140,6.0,18.0,70,0.00,,SKC,0.00,VWS V14.01,2013-05-27 22:30:00,
2013-05-27 17:35:00,84.6,73.7,29.85,SE,146,12.0,17.0,70,0.00,,SKC,0.00,VWS V14.01,2013-05-27 22:35:00,
2013-05-27 17:40:00,84.7,73.8,29.86,SSE,157,12.0,18.0,70,0.00,,SKC,0.00,VWS V14.01,2013-05-27 22:40:00,
2013-05-27 17:45:00,84.7,73.8,29.86,SSE,155,11.0,19.0,70,0.00,,SKC,0.00,VWS V14.01,2013-05-27 22:45:00,
2013-05-27 17:50:00,84.6,73.7,29.85,South,171,4.0,19.0,70,0.00,,SKC,0.00,VWS V14.01,2013-05-27 22:50:00,
2013-05-27 17:55:00,84.7,73.4,29.85,SE,146,5.0,19.0,69,0.00,,SKC,0.00,VWS V14.01,2013-05-27 22:55:00,
2013-05-27 18:00:00,84.8,73.5,29.85,SSE,168,3.0,19.0,69,0.00,,SKC,0.00,VWS V14.01,2013-05-27 23:00:00,
2013-05-27 18:05:00,84.7,73.4,29.85,SSE,155,4.0,13.0,69,0.00,,SKC,0.00,VWS V14.01,2013-05-27 23:05:00,
2013-05-27 18:10:00,84.7,73.4,29.85,SSE,157,6.0,17.0,69,0.00,,SKC,0.00,VWS V14.01,2013-05-27 23:10:00,
2013-05-27 18:15:00,84.5,73.2,29.85,SSE,156,7.0,18.0,69,0.00,,SKC,0.00,VWS V14.01,2013-05-27 23:15:00,
2013-05-27 18:20:00,84.4,73.1,29.84,SE,138,11.0,18.0,69,0.00,,SKC,0.00,VWS V14.01,2013-05-27 23:20:00,
2013-05-27 18:25:00,84.3,73.0,29.84,SSE,147,6.0,20.0,69,0.00,,SKC,0.00,VWS V14.01,2013-05-27 23:25:00,
2013-05-27 18:30:00,84.4,73.1,29.84,SE,140,18.0,21.0,69,0.00,,SKC,0.00,VWS V14.01,2013-05-27 23:30:00,
2013-05-27 18:35:00,84.3,73.5,29.84,SSE,149,15.0,16.0,70,0.00,,SKC,0.00,VWS V14.01,2013-05-27 23:35:00,
2013-05-27 18:40:00,84.2,72.9,29.84,SE,139,16.0,16.0,69,0.00,,SKC,0.00,VWS V14.01,2013-05-27 23:40:00,
2013-05-27 18:45:00,84.1,72.8,29.85,SSE,148,6.0,19.0,69,0.00,,SKC,0.00,VWS V14.01,2013-05-27 23:45:00,
2013-05-27 18:50:00,84.0,73.2,29.84,SE,136,6.0,19.0,70,0.00,,SKC,0.00,VWS V14.01,2013-05-27 23:50:00,
2013-05-27 18:55:00,83.9,73.1,29.84,SSE,153,11.0,19.0,70,0.00,,SKC,0.00,VWS V14.01,2013-05-27 23:55:00,
2013-05-27 19:00:00,83.6,72.8,29.85,SE,132,10.0,19.0,70,0.00,,SKC,0.00,VWS V14.01,2013-05-28 00:00:00,
2013-05-27 19:05:00,83.2,72.8,29.85,SSE,148,3.0,13.0,71,0.00,,SKC,0.00,VWS V14.01,2013-05-28 00:05:00,
2013-05-27 19:10:00,82.9,72.5,29.85,SSE,153,11.0,16.0,71,0.00,,SKC,0.00,VWS V14.01,2013-05-28 00:10:00,
2013-05-27 19:15:00,82.8,72.9,29.85,SE,138,9.0,16.0,72,0.00,,SKC,0.00,VWS V14.01,2013-05-28 00:15:00,
2013-05-27 19:20:00,82.5,72.6,29.85,SSE,148,8.0,18.0,72,0.00,,SKC,0.00,VWS V14.01,2013-05-28 00:20:00,
2013-05-27 19:25:00,82.4,72.5,29.86,SE,138,10.0,18.0,72,0.00,,SKC,0.00,VWS V14.01,2013-05-28 00:25:00,
2013-05-27 19:30:00,82.3,72.4,29.86,SE,132,5.0,18.0,72,0.00,,SKC,0.00,VWS V14.01,2013-05-28 00:30:00,
2013-05-27 19:35:00,82.1,72.2,29.85,SSE,167,13.0,16.0,72,0.00,,SKC,0.00,VWS V14.01,2013-05-28 00:35:00,
2013-05-27 19:40:00,82.0,72.5,29.85,SSE,153,6.0,17.0,73,0.00,,SKC,0.00,VWS V14.01,2013-05-28 00:40:00,
2013-05-27 19:45:00,81.8,72.3,29.84,SSE,148,4.0,17.0,73,0.00,,SKC,0.00,VWS V14.01,2013-05-28 00:45:00,
2013-05-27 19:50:00,81.6,72.1,29.85,SE,130,7.0,17.0,73,0.00,,SKC,0.00,VWS V14.01,2013-05-28 00:50:00,
2013-05-27 19:55:00,81.4,72.3,29.85,SE,143,13.0,17.0,74,0.00,,SKC,0.00,VWS V14.01,2013-05-28 00:55:00,
2013-05-27 20:00:00,81.3,72.2,29.85,SSE,148,7.0,17.0,74,0.00,,SKC,0.00,VWS V14.01,2013-05-28 01:00:00,
2013-05-27 20:05:00,81.1,72.0,29.85,SSE,150,11.0,12.0,74,0.00,,SKC,0.00,VWS V14.01,2013-05-28 01:05:00,
2013-05-27 20:10:00,80.9,71.8,29.85,SE,140,9.0,14.0,74,0.00,,SKC,0.00,VWS V14.01,2013-05-28 01:10:00,
2013-05-27 20:15:00,80.8,71.7,29.85,SE,138,12.0,14.0,74,0.00,,SKC,0.00,VWS V14.01,2013-05-28 01:15:00,
2013-05-27 20:20:00,80.6,71.6,29.85,SE,132,9.0,15.0,74,0.00,,SKC,0.00,VWS V14.01,2013-05-28 01:20:00,
2013-05-27 20:25:00,80.5,71.5,29.86,SE,144,4.0,15.0,74,0.00,,SKC,0.00,VWS V14.01,2013-05-28 01:25:00,
2013-05-27 20:30:00,80.4,71.8,29.86,SSE,150,4.0,15.0,75,0.00,,SKC,0.00,VWS V14.01,2013-05-28 01:30:00,
2013-05-27 20:35:00,80.3,71.7,29.86,SSE,152,6.0,9.0,75,0.00,,SKC,0.00,VWS V14.01,2013-05-28 01:35:00,
2013-05-27 20:40:00,80.2,71.6,29.86,SSE,147,5.0,12.0,75,0.00,,SKC,0.00,VWS V14.01,2013-05-28 01:40:00,
2013-05-27 20:45:00,80.0,71.4,29.86,SSE,150,5.0,12.0,75,0.00,,SKC,0.00,VWS V14.01,2013-05-28 01:45:00,
2013-05-27 20:50:00,79.8,71.2,29.87,SSE,147,4.0,12.0,75,0.00,,SKC,0.00,VWS V14.01,2013-05-28 01:50:00,
2013-05-27 20:55:00,79.6,71.0,29.86,SSE,151,4.0,12.0,75,0.00,,SKC,0.00,VWS V14.01,2013-05-28 01:55:00,
2013-05-27 21:00:00,79.4,70.8,29.86,SE,145,9.0,14.0,75,0.00,,SKC,0.00,VWS V14.01,2013-05-28 02:00:00,
2013-05-27 21:05:00,79.3,70.7,29.86,SSE,151,3.0,15.0,75,0.00,,SKC,0.00,VWS V14.01,2013-05-28 02:05:00,
2013-05-27 21:10:00,79.2,70.6,29.86,SE,144,7.0,16.0,75,0.00,,SKC,0.00,VWS V14.01,2013-05-28 02:10:00,
2013-05-27 21:15:00,79.1,70.5,29.87,SSE,160,6.0,16.0,75,0.00,,SKC,0.00,VWS V14.01,2013-05-28 02:15:00,
2013-05-27 21:20:00,78.9,70.3,29.87,SSE,156,6.0,16.0,75,0.00,,SKC,0.00,VWS V14.01,2013-05-28 02:20:00,
2013-05-27 21:25:00,78.8,70.2,29.87,SSE,156,5.0,16.0,75,0.00,,SKC,0.00,VWS V14.01,2013-05-28 02:25:00,
2013-05-27 21:30:00,78.7,70.1,29.87,SE,145,4.0,16.0,75,0.00,,SKC,0.00,VWS V14.01,2013-05-28 02:30:00,
2013-05-27 21:35:00,78.6,70.4,29.87,SE,145,3.0,6.0,76,0.00,,SKC,0.00,VWS V14.01,2013-05-28 02:35:00,
2013-05-27 21:40:00,78.5,70.3,29.88,SE,145,9.0,11.0,76,0.00,,SKC,0.00,VWS V14.01,2013-05-28 02:40:00,
2013-05-27 21:45:00,78.3,70.1,29.88,SSE,148,4.0,11.0,76,0.00,,SKC,0.00,VWS V14.01,2013-05-28 02:45:00,
2013-05-27 21:50:00,78.2,70.0,29.88,SE,146,7.0,11.0,76,0.00,,SKC,0.00,VWS V14.01,2013-05-28 02:50:00,
2013-05-27 21:55:00,78.0,70.2,29.88,SE,146,11.0,14.0,77,0.00,,SKC,0.00,VWS V14.01,2013-05-28 02:55:00,
2013-05-27 22:00:00,77.8,70.0,29.89,SSE,148,3.0,14.0,77,0.00,,SKC,0.00,VWS V14.01,2013-05-28 03:00:00,
2013-05-27 22:05:00,77.6,69.4,29.89,SSE,152,3.0,11.0,76,0.00,,SKC,0.00,VWS V14.01,2013-05-28 03:05:00,
2013-05-27 22:10:00,77.5,69.0,29.89,SE,142,4.0,13.0,75,0.00,,SKC,0.00,VWS V14.01,2013-05-28 03:10:00,
2013-05-27 22:15:00,77.4,69.2,29.89,SSE,148,3.0,13.0,76,0.00,,SKC,0.00,VWS V14.01,2013-05-28 03:15:00,
2013-05-27 22:20:00,77.3,69.2,29.89,SE,138,4.0,13.0,76,0.00,,SKC,0.00,VWS V14.01,2013-05-28 03:20:00,
2013-05-27 22:25:00,77.1,69.0,29.90,SE,137,10.0,13.0,76,0.00,,SKC,0.00,VWS V14.01,2013-05-28 03:25:00,
2013-05-27 22:30:00,77.0,68.9,29.90,SSE,148,7.0,14.0,76,0.00,,SKC,0.00,VWS V14.01,2013-05-28 03:30:00,
2013-05-27 22:35:00,76.8,68.7,29.90,SSE,151,5.0,13.0,76,0.00,,SKC,0.00,VWS V14.01,2013-05-28 03:35:00,
2013-05-27 23:00:00,76.1,69.1,29.90,SE,135,5.0,14.0,79,0.00,,SKC,0.00,VWS V14.01,2013-05-28 04:00:00,
2013-05-27 23:30:00,75.2,69.7,29.91,SE,135,5.0,14.0,83,0.00,,SKC,0.00,VWS V14.01,2013-05-28 04:30:00,